SR9NSK-1 Weather Reports


time (UTC)temp
C
wind
direction
speed
KPH
gust
KPH
rain 1hr
cm
rain 24hr
cm
rain mn
cm
humidity
%
barometer
mb
20260508023750 4 256 6.4 6.4 0.00 0.00 0.00 87 874.0
20260508023550 4 255 6.4 8.0 0.00 0.00 0.00 87 874.0
20260508023348 4 259 4.8 8.0 0.00 0.00 0.00 87 874.0
20260508023148 4 258 3.2 4.8 0.00 0.00 0.00 87 873.9
20260508022948 4 261 4.8 6.4 0.00 0.00 0.00 87 873.9
20260508022748 4 265 4.8 6.4 0.00 0.00 0.00 87 873.9
20260508022548 5 265 4.8 6.4 0.00 0.00 0.00 87 873.9
20260508022348 5 270 6.4 8.0 0.00 0.00 0.00 87 873.9
20260508022149 5 275 6.4 8.0 0.00 0.00 0.00 87 873.9
20260508021948 5 275 6.4 9.7 0.00 0.00 0.00 87 873.9
20260508021748 4 275 8.0 9.7 0.00 0.00 0.00 87 873.9
20260508021548 4 272 8.0 11.3 0.00 0.00 0.00 87 873.9
20260508021346 4 276 6.4 11.3 0.00 0.00 0.00 87 873.9
20260508021146 4 275 8.0 11.3 0.00 0.00 0.00 87 873.9
20260508020946 4 258 8.0 11.3 0.00 0.00 0.00 87 873.9
20260508020746 4 258 8.0 9.7 0.00 0.00 0.00 87 873.9
20260508020546 4 258 8.0 9.7 0.00 0.00 0.00 87 873.9
20260508020346 4 262 8.0 9.7 0.00 0.00 0.00 87 873.9
20260508020146 4 265 8.0 9.7 0.00 0.00 0.00 87 873.9
20260508015946 4 266 6.4 9.7 0.00 0.00 0.00 87 873.9
20260508015746 4 270 6.4 8.0 0.00 0.00 0.00 87 874.0
20260508015546 4 278 6.4 8.0 0.00 0.00 0.00 87 874.0
20260508015344 4 290 4.8 6.4 0.00 0.00 0.00 87 873.9
20260508015142 4 302 3.2 6.4 0.00 0.00 0.00 87 873.9
20260508014942 4 298 4.8 6.4 0.00 0.00 0.00 87 873.9
20260508014742 4 287 6.4 8.0 0.00 0.00 0.00 87 873.9
20260508014542 5 272 6.4 9.7 0.00 0.00 0.00 87 874.0
20260508014342 5 268 8.0 9.7 0.00 0.00 0.00 87 874.0
20260508014142 5 266 6.4 9.7 0.00 0.00 0.00 87 874.0
20260508013942 5 272 6.4 9.7 0.00 0.00 0.00 87 874.0
20260508013742 5 285 4.8 4.8 0.00 0.00 0.00 87 874.0
20260508013542 5 289 3.2 6.4 0.00 0.00 0.00 87 874.0
20260508013340 5 283 3.2 6.4 0.00 0.00 0.00 87 874.0
20260508013140 5 283 3.2 3.2 0.00 0.00 0.00 87 874.0
20260508012940 5 284 3.2 4.8 0.00 0.00 0.00 87 874.0
20260508012740 5 293 4.8 6.4 0.00 0.00 0.00 87 873.9
20260508012540 5 301 4.8 6.4 0.00 0.00 0.00 87 873.9
20260508012331 5 305 6.4 9.7 0.00 0.00 0.00 87 873.9
20260508012132 5 298 6.4 8.0 0.00 0.00 0.00 87 873.9
20260508011931 5 288 4.8 6.4 0.00 0.00 0.00 87 873.9
20260508011732 5 273 4.8 6.4 0.00 0.00 0.00 87 873.9
20260508011531 5 261 6.4 9.7 0.00 0.00 0.00 87 874.0
20260508011329 5 254 8.0 11.3 0.00 0.00 0.00 87 874.0
20260508011129 5 257 8.0 11.3 0.00 0.00 0.00 87 873.9
20260508010929 5 264 8.0 9.7 0.00 0.00 0.00 87 873.9
20260508010729 5 270 8.0 9.7 0.00 0.00 0.00 87 873.9
20260508010529 4 276 8.0 9.7 0.00 0.00 0.00 87 873.9
20260508010329 4 272 9.7 11.3 0.00 0.00 0.00 87 873.9
20260508010129 4 273 8.0 11.3 0.00 0.00 0.00 87 873.9
20260508005929 4 272 8.0 11.3 0.00 0.00 0.00 87 873.9
20260508005729 4 270 8.0 11.3 0.00 0.00 0.00 87 873.9
20260508005529 4 269 9.7 12.9 0.00 0.00 0.00 87 873.9
20260508005327 4 273 9.7 12.9 0.00 0.00 0.00 87 873.9
20260508005127 4 280 9.7 12.9 0.00 0.00 0.00 87 873.9
20260508004927 4 280 9.7 12.9 0.00 0.00 0.00 86 873.8
20260508004727 4 281 9.7 12.9 0.00 0.00 0.00 86 873.9
20260508004527 4 278 9.7 12.9 0.00 0.00 0.00 86 873.8
20260508004325 5 278 11.3 12.9 0.00 0.00 0.00 86 873.8
20260508004125 5 276 11.3 12.9 0.00 0.00 0.00 86 873.9
20260508003925 5 274 11.3 12.9 0.00 0.00 0.00 86 873.9
20260508003725 5 275 9.7 12.9 0.00 0.00 0.00 86 873.9
20260508003525 5 276 9.7 12.9 0.00 0.00 0.00 86 873.9
20260508003323 5 274 9.7 12.9 0.00 0.00 0.00 86 874.0
20260508003123 5 277 9.7 11.3 0.00 0.00 0.00 86 874.0
20260508002924 5 276 8.0 9.7 0.00 0.00 0.00 86 874.0
20260508002723 5 279 8.0 9.7 0.00 0.00 0.00 86 874.0
20260508002523 5 281 6.4 9.7 0.00 0.00 0.00 86 874.0
20260508002323 5 273 6.4 8.0 0.00 0.00 0.00 86 874.1
20260508002123 5 272 8.0 11.3 0.00 0.00 0.00 86 874.1
20260508001923 5 277 9.7 12.9 0.00 0.00 0.00 86 874.1
20260508001723 5 286 6.4 12.9 0.00 0.00 0.00 86 874.1
20260508001523 5 280 6.4 8.0 0.00 0.00 0.00 86 874.1
20260508001321 5 279 6.4 8.0 0.00 0.00 0.00 86 874.1
20260508001121 5 284 6.4 8.0 0.00 0.00 0.00 86 874.1
20260508000922 5 286 6.4 8.0 0.00 0.00 0.00 86 874.1
20260508000720 5 283 4.8 6.4 0.00 0.00 0.00 86 874.1
20260508000520 5 292 4.8 6.4 0.00 0.00 0.00 86 874.1
20260508000320 5 295 4.8 8.0 0.00 0.00 0.00 86 874.1
20260508000120 5 305 6.4 8.0 0.00 0.00 0.00 86 874.1
20260507235920 5 314 6.4 9.7 0.00 0.00 0.00 86 874.1
20260507235720 5 323 6.4 9.7 0.00 0.00 0.00 86 874.1
20260507235520 5 323 6.4 8.0 0.00 0.00 0.00 86 874.1
20260507235318 5 352 6.4 8.0 0.00 0.00 0.00 86 874.0
20260507235117 5 10 6.4 9.7 0.00 0.00 0.00 86 874.0
20260507234917 5 12 6.4 8.0 0.00 0.00 0.00 86 874.1
20260507234718 5 351 8.0 9.7 0.00 0.00 0.00 86 874.1
20260507234518 5 319 6.4 9.7 0.00 0.00 0.00 86 874.1
20260507234317 5 325 6.4 8.0 0.00 0.00 0.00 86 874.1
20260507234117 5 318 6.4 8.0 0.00 0.00 0.00 86 874.1
20260507233917 5 329 8.0 9.7 0.00 0.00 0.00 86 874.1
20260507233718 5 339 6.4 8.0 0.00 0.00 0.00 86 874.1
20260507233515 5 318 6.4 9.7 0.00 0.00 0.00 86 874.1
20260507233314 5 347 8.0 9.7 0.00 0.00 0.00 86 874.2
20260507233114 5 12 8.0 9.7 0.00 0.00 0.00 86 874.2
20260507232914 5 3 6.4 9.7 0.00 0.00 0.00 86 874.2
20260507232713 5 4 8.0 9.7 0.00 0.00 0.00 86 874.3
20260507232513 5 336 6.4 9.7 0.00 0.00 0.00 86 874.3
20260507232313 5 308 6.4 9.7 0.00 0.00 0.00 86 874.3
20260507232113 5 301 6.4 11.3 0.00 0.00 0.00 86 874.3
20260507231913 5 311 8.0 11.3 0.00 0.00 0.00 86 874.3
20260507231713 5 297 6.4 9.7 0.00 0.00 0.00 86 874.4
20260507231513 5 276 8.0 11.3 0.00 0.00 0.00 86 874.4
20260507231311 5 273 9.7 11.3 0.00 0.00 0.00 86 874.4
20260507231111 5 274 11.3 14.5 0.00 0.00 0.00 86 874.3
20260507230911 5 273 11.3 14.5 0.00 0.00 0.00 86 874.3
20260507230711 5 269 11.3 14.5 0.00 0.00 0.00 86 816.9
20260507230511 5 274 11.3 12.9 0.00 0.00 0.00 86 759.5
20260507230300 5 277 11.3 12.9 0.00 0.00 0.00 86 874.3
20260507230058 5 291 11.3 16.1 0.00 0.00 0.00 86 874.3
20260507225858 5 281 12.9 16.1 0.00 0.00 0.00 86 874.3
20260507225658 5 285 12.9 17.7 0.00 0.00 0.00 86 874.3
20260507225458 5 289 9.7 17.7 0.00 0.00 0.00 86 874.3
20260507225258 5 289 9.7 12.9 0.00 0.00 0.00 86 874.2
20260507225058 5 302 9.7 12.9 0.00 0.00 0.00 86 874.3
20260507224858 5 312 9.7 14.5 0.00 0.00 0.00 86 874.3
20260507224658 5 290 11.3 14.5 0.00 0.00 0.00 86 874.3
20260507224458 5 293 11.3 12.9 0.00 0.00 0.00 86 874.4
20260507224256 5 290 11.3 12.9 0.00 0.00 0.00 86 874.4
20260507224056 5 292 9.7 12.9 0.00 0.00 0.00 86 874.3
20260507223856 5 299 9.7 16.1 0.00 0.00 0.00 86 874.3
20260507223656 5 293 8.0 11.3 0.00 0.00 0.00 86 874.2
20260507223456 5 291 11.3 16.1 0.00 0.00 0.00 86 874.2
20260507223256 5 288 11.3 16.1 0.00 0.00 0.00 86 874.2
20260507223056 5 288 12.9 17.7 0.00 0.00 0.00 86 874.2
20260507222856 5 283 14.5 17.7 0.00 0.00 0.00 86 874.2
20260507222656 5 285 16.1 19.3 0.00 0.00 0.00 86 874.2
20260507222456 5 263 17.7 22.5 0.00 0.00 0.00 86 874.3
20260507222254 5 234 14.5 22.5 0.00 0.00 0.00 86 874.3
20260507222054 5 233 11.3 16.1 0.00 0.00 0.00 86 874.3
20260507221854 5 259 11.3 16.1 0.00 0.00 0.00 86 874.2
20260507221654 5 276 12.9 16.1 0.00 0.00 0.00 86 874.2
20260507221454 5 305 12.9 16.1 0.00 0.00 0.00 86 874.1
20260507221254 5 314 12.9 16.1 0.00 0.00 0.00 86 874.1
20260507221055 5 336 14.5 19.3 0.00 0.00 0.00 86 874.0
20260507220854 5 10 14.5 19.3 0.00 0.00 0.00 86 874.0
20260507220655 5 12 14.5 19.3 0.00 0.00 0.00 86 874.1
20260507220455 5 18 16.1 17.7 0.00 0.00 0.00 85 874.1
20260507220253 5 21 12.9 17.7 0.00 0.00 0.00 85 874.1
20260507220053 5 18 11.3 14.5 0.00 0.00 0.00 85 874.1
20260507215853 5 16 11.3 14.5 0.00 0.00 0.00 85 874.1
20260507215653 5 12 11.3 12.9 0.00 0.00 0.00 85 874.1
20260507215453 5 14 14.5 20.9 0.00 0.00 0.00 85 874.1
20260507215251 5 19 14.5 20.9 0.00 0.00 0.00 85 874.1
20260507215051 5 19 12.9 17.7 0.00 0.00 0.00 85 874.1
20260507214851 5 23 12.9 17.7 0.00 0.00 0.00 85 874.2
20260507214651 6 21 11.3 16.1 0.00 0.00 0.00 85 874.2
20260507214450 6 18 11.3 17.7 0.00 0.00 0.00 85 874.3
20260507214249 6 22 11.3 17.7 0.00 0.00 0.00 85 874.2
20260507214049 6 20 8.0 11.3 0.00 0.00 0.00 85 874.2
20260507213849 6 19 11.3 17.7 0.00 0.00 0.00 85 874.2
20260507213649 6 27 14.5 17.7 0.00 0.00 0.00 85 874.2
20260507213449 6 18 14.5 17.7 0.00 0.00 0.00 85 874.1
20260507213249 6 359 12.9 17.7 0.00 0.00 0.00 85 874.1
20260507213049 6 315 9.7 17.7 0.00 0.00 0.00 85 874.1
20260507212849 6 297 6.4 9.7 0.00 0.00 0.00 85 874.1
20260507212649 6 303 6.4 9.7 0.00 0.00 0.00 85 874.1
20260507212449 6 273 6.4 11.3 0.00 0.00 0.00 85 874.0
20260507212247 6 248 4.8 8.0 0.00 0.00 0.00 85 874.0
20260507212047 6 240 4.8 8.0 0.00 0.00 0.00 85 874.0
20260507211847 6 228 3.2 8.0 0.00 0.00 0.00 85 874.0
20260507211647 6 226 4.8 8.0 0.00 0.00 0.00 85 873.9
20260507211447 6 235 4.8 8.0 0.00 0.00 0.00 85 873.9
20260507211247 6 249 6.4 9.7 0.00 0.00 0.00 85 873.9
20260507211047 6 246 8.0 9.7 0.00 0.00 0.00 85 873.9
20260507210847 6 241 6.4 8.0 0.00 0.00 0.00 85 873.9
20260507210647 6 242 6.4 8.0 0.00 0.00 0.00 85 873.9
20260507210447 6 246 6.4 8.0 0.00 0.00 0.00 85 873.9
20260507210245 6 256 6.4 9.7 0.00 0.00 0.00 85 873.9
20260507210045 6 255 8.0 11.3 0.00 0.00 0.00 85 873.8
20260507205845 6 249 9.7 11.3 0.00 0.00 0.00 85 873.8
20260507205645 6 248 9.7 11.3 0.00 0.00 0.00 85 873.8
20260507205445 6 251 8.0 9.7 0.00 0.00 0.00 85 873.8
20260507205245 6 257 8.0 11.3 0.00 0.00 0.00 85 873.8
20260507205045 6 259 9.7 14.5 0.00 0.00 0.00 85 873.8
20260507204845 6 260 9.7 14.5 0.00 0.00 0.00 85 873.8
20260507204645 6 257 9.7 12.9 0.00 0.00 0.00 85 873.8
20260507204443 6 244 11.3 12.9 0.00 0.00 0.00 85 873.8
20260507204241 6 242 12.9 14.5 0.00 0.00 0.00 85 873.8
20260507204041 6 245 11.3 12.9 0.00 0.00 0.00 85 873.8
20260507203841 6 245 9.7 12.9 0.00 0.00 0.00 84 873.8
20260507203641 6 247 12.9 16.1 0.00 0.00 0.00 84 873.8
20260507203441 6 251 12.9 16.1 0.00 0.00 0.00 84 873.7
20260507203232 6 247 12.9 16.1 0.00 0.00 0.00 84 873.7
20260507203032 6 247 12.9 16.1 0.00 0.00 0.00 84 873.7
20260507202832 6 243 14.5 16.1 0.00 0.00 0.00 84 873.7
20260507202632 6 248 16.1 19.3 0.00 0.00 0.00 84 873.7
20260507202432 6 248 16.1 19.3 0.00 0.00 0.00 84 873.7
20260507202230 6 248 16.1 19.3 0.00 0.00 0.00 84 873.7
20260507202030 6 253 16.1 19.3 0.00 0.00 0.00 84 873.7
20260507201830 6 257 16.1 19.3 0.00 0.00 0.00 84 873.7
20260507201630 6 252 16.1 19.3 0.00 0.00 0.00 84 873.7
20260507201430 6 245 16.1 19.3 0.00 0.00 0.00 84 873.7
20260507201228 6 244 12.9 16.1 0.00 0.00 0.00 84 873.7
20260507201028 6 254 12.9 16.1 0.00 0.00 0.00 84 873.7
20260507200828 6 247 14.5 20.9 0.00 0.00 0.00 84 873.7
20260507200628 6 250 12.9 16.1 0.00 0.00 0.00 84 873.7
20260507200429 6 256 12.9 17.7 0.00 0.00 0.00 84 873.7
20260507200226 6 249 14.5 17.7 0.00 0.00 0.00 83 873.7
20260507200026 6 254 14.5 17.7 0.00 0.00 0.00 83 873.7
20260507195826 6 257 12.9 17.7 0.00 0.00 0.00 83 873.7
20260507195626 6 250 12.9 16.1 0.00 0.00 0.00 83 873.7
20260507195426 6 251 12.9 16.1 0.00 0.00 0.00 83 873.7
20260507195226 6 246 12.9 16.1 0.00 0.00 0.00 83 873.7
20260507195026 6 240 12.9 17.7 0.00 0.00 0.00 83 873.7
20260507194827 6 239 12.9 17.7 0.00 0.00 0.00 83 873.7
20260507194626 7 243 12.9 19.3 0.00 0.00 0.00 83 873.6
20260507194426 7 247 12.9 19.3 0.00 0.00 0.00 82 873.6
20260507194224 7 239 9.7 16.1 0.00 0.00 0.00 82 873.6
20260507194024 7 249 12.9 16.1 0.00 0.00 0.00 82 873.6
20260507193824 7 253 9.7 16.1 0.00 0.00 0.00 82 873.6
20260507193622 7 229 11.3 17.7 0.00 0.00 0.00 82 873.5
20260507193423 7 221 14.5 19.3 0.00 0.00 0.00 82 873.4
20260507193222 7 217 16.1 22.5 0.00 0.00 0.00 82 873.4
20260507193023 7 212 16.1 22.5 0.00 0.00 0.00 82 873.4
20260507192823 7 211 16.1 20.9 0.00 0.00 0.00 82 873.5
20260507192623 7 210 17.7 20.9 0.00 0.00 0.00 81 873.4
20260507192423 7 209 17.7 20.9 0.00 0.00 0.00 81 873.4
20260507192221 7 211 17.7 25.7 0.00 0.00 0.00 81 873.4
20260507192021 7 213 19.3 25.7 0.00 0.00 0.00 81 873.4
20260507191821 7 214 19.3 25.7 0.00 0.00 0.00 81 873.4
20260507191621 7 211 17.7 20.9 0.00 0.00 0.00 81 873.3
20260507191421 7 210 17.7 24.1 0.00 0.00 0.00 81 873.3
20260507191221 7 211 17.7 22.5 0.00 0.00 0.00 81 873.3
20260507191021 7 211 16.1 22.5 0.00 0.00 0.00 81 873.3
20260507190821 7 208 12.9 22.5 0.00 0.00 0.00 81 873.3
20260507190621 7 203 12.9 19.3 0.00 0.00 0.00 81 873.3
20260507190421 7 210 12.9 17.7 0.00 0.00 0.00 81 873.3
20260507190219 7 214 12.9 20.9 0.00 0.00 0.00 81 873.3
20260507190019 7 214 12.9 16.1 0.00 0.00 0.00 81 873.3
20260507185819 7 213 14.5 19.3 0.00 0.00 0.00 80 873.2
20260507185619 7 212 16.1 22.5 0.00 0.00 0.00 80 873.2
20260507185419 7 210 17.7 27.4 0.00 0.00 0.00 80 873.2
20260507185219 7 213 19.3 27.4 0.00 0.00 0.00 80 873.1
20260507185020 7 213 17.7 24.1 0.00 0.00 0.00 80 873.1
20260507184819 7 210 17.7 24.1 0.00 0.00 0.00 80 873.1
20260507184619 7 210 19.3 25.7 0.00 0.00 0.00 80 873.1
20260507184419 7 204 19.3 25.7 0.00 0.00 0.00 80 873.0
20260507184217 7 211 17.7 25.7 0.00 0.00 0.00 80 873.0
20260507184017 7 210 19.3 27.4 0.00 0.00 0.00 81 873.0
20260507183817 7 208 17.7 27.4 0.00 0.00 0.00 81 872.9
20260507183617 7 203 14.5 20.9 0.00 0.00 0.00 81 872.9
20260507183417 7 208 14.5 19.3 0.00 0.00 0.00 81 872.9
20260507183217 7 212 14.5 17.7 0.00 0.00 0.00 81 872.9
20260507183017 7 199 14.5 22.5 0.00 0.00 0.00 82 872.9
20260507182815 7 195 16.1 22.5 0.00 0.00 0.00 81 872.9
20260507182615 7 199 16.1 20.9 0.00 0.00 0.00 82 872.9
20260507182415 7 192 16.1 24.1 0.00 0.00 0.00 82 872.9
20260507182213 7 191 16.1 24.1 0.00 0.00 0.00 82 872.9
20260507182013 7 198 17.7 24.1 0.00 0.00 0.00 82 872.9
20260507181813 7 194 17.7 30.6 0.00 0.00 0.00 82 872.9
20260507181613 7 193 17.7 30.6 0.00 0.00 0.00 82 872.8
20260507181413 7 192 17.7 22.5 0.00 0.00 0.00 82 872.8
20260507181213 7 190 17.7 22.5 0.00 0.00 0.00 82 872.8
20260507181013 7 191 19.3 25.7 0.00 0.00 0.00 82 872.8
20260507180813 7 187 19.3 25.7 0.00 0.00 0.00 82 872.8
20260507180613 7 186 19.3 25.7 0.00 0.00 0.00 82 872.8
20260507180413 7 188 19.3 25.7 0.00 0.00 0.00 82 872.8
20260507180202 7 188 17.7 25.7 0.00 0.00 0.00 82 872.7
20260507180001 7 194 17.7 22.5 0.00 0.00 0.00 82 872.7
20260507175802 7 191 19.3 24.1 0.00 0.00 0.00 82 872.7
20260507175601 7 188 19.3 24.1 0.00 0.00 0.00 82 872.7
20260507175401 7 188 17.7 24.1 0.00 0.00 0.00 82 872.7
20260507175201 7 189 19.3 24.1 0.00 0.00 0.00 82 872.7
20260507175001 7 186 19.3 22.5 0.00 0.00 0.00 82 872.7
20260507174801 7 184 16.1 20.9 0.00 0.00 0.00 82 872.7
20260507174601 7 187 17.7 24.1 0.00 0.00 0.00 82 872.7
20260507174401 7 189 17.7 22.5 0.00 0.00 0.00 82 872.7
20260507174159 7 187 17.7 22.5 0.00 0.00 0.00 82 872.7
20260507173959 7 187 17.7 24.1 0.00 0.00 0.00 81 872.7
20260507173759 7 185 19.3 24.1 0.00 0.00 0.00 81 872.7
20260507173559 7 190 19.3 27.4 0.00 0.00 0.00 81 872.7
20260507173359 7 190 19.3 27.4 0.00 0.00 0.00 81 872.7
20260507173159 7 192 22.5 29.0 0.00 0.00 0.00 81 872.7
20260507172958 7 189 22.5 29.0 0.00 0.00 0.00 81 872.7
20260507172758 7 192 22.5 29.0 0.00 0.00 0.00 81 872.7
20260507172558 7 194 22.5 30.6 0.00 0.00 0.00 80 872.6
20260507172358 7 195 20.9 27.4 0.00 0.00 0.00 80 872.6
20260507172156 7 189 20.9 27.4 0.00 0.00 0.00 80 872.6
20260507171954 7 189 22.5 30.6 0.00 0.00 0.00 80 872.6
20260507171754 7 191 20.9 27.4 0.00 0.00 0.00 80 872.6
20260507171554 7 192 20.9 27.4 0.00 0.00 0.00 80 872.7
20260507171354 7 190 19.3 24.1 0.00 0.00 0.00 80 872.6
20260507171154 7 190 19.3 24.1 0.00 0.00 0.00 80 872.6
20260507170954 7 191 19.3 24.1 0.00 0.00 0.00 80 872.6
20260507170754 7 187 17.7 22.5 0.00 0.00 0.00 80 872.6
20260507170554 7 186 19.3 24.1 0.00 0.00 0.00 80 872.6
20260507170354 7 188 19.3 24.1 0.00 0.00 0.00 80 872.6
20260507170152 7 188 17.7 22.5 0.00 0.00 0.00 80 872.5
20260507165952 7 190 19.3 24.1 0.00 0.00 0.00 80 872.5
20260507165751 7 194 19.3 25.7 0.00 0.00 0.00 80 872.5
20260507165552 7 193 17.7 25.7 0.00 0.00 0.00 80 872.5
20260507165351 7 195 17.7 27.4 0.00 0.00 0.00 80 872.5
20260507165151 7 191 19.3 27.4 0.00 0.00 0.00 80 872.5
20260507164951 7 191 17.7 22.5 0.00 0.00 0.00 80 872.5
20260507164751 7 193 16.1 22.5 0.00 0.00 0.00 80 872.5
20260507164551 7 192 16.1 22.5 0.00 0.00 0.00 80 872.5
20260507164351 7 188 16.1 20.9 0.00 0.00 0.00 80 872.4
20260507164149 7 191 16.1 20.9 0.00 0.00 0.00 80 872.4
20260507163949 7 196 12.9 17.7 0.00 0.00 0.00 80 872.4
20260507163749 7 203 12.9 19.3 0.00 0.00 0.00 80 872.5
20260507163549 7 200 14.5 19.3 0.00 0.00 0.00 80 872.5
20260507163349 7 209 16.1 19.3 0.00 0.00 0.00 80 872.4
20260507163149 7 210 14.5 19.3 0.00 0.00 0.00 80 872.5
20260507162949 7 211 16.1 19.3 0.00 0.00 0.00 81 872.5
20260507162749 6 215 16.1 19.3 0.00 0.00 0.00 81 872.5
20260507162549 6 210 14.5 19.3 0.00 0.00 0.00 81 872.5
20260507162349 6 211 12.9 19.3 0.00 0.00 0.00 81 872.5
20260507162148 6 215 14.5 17.7 0.00 0.00 0.00 81 872.5
20260507161948 6 222 16.1 19.3 0.00 0.00 0.00 81 872.5
20260507161748 6 221 16.1 19.3 0.00 0.00 0.00 81 872.5
20260507161548 6 222 17.7 22.5 0.00 0.00 0.00 81 872.5
20260507161348 6 224 19.3 22.5 0.00 0.00 0.00 81 872.5
20260507161146 6 225 20.9 25.7 0.00 0.00 0.00 81 872.5
20260507160946 6 223 22.5 25.7 0.00 0.00 0.00 81 872.6
20260507160745 6 223 22.5 25.7 0.00 0.00 0.00 81 872.6
20260507160545 6 221 22.5 30.6 0.00 0.00 0.00 81 872.6
20260507160345 6 221 19.3 30.6 0.00 0.00 0.00 81 872.6
20260507160143 6 213 20.9 29.0 0.00 0.00 0.00 81 872.6
20260507155943 6 210 19.3 24.1 0.00 0.00 0.00 81 872.7
20260507155743 6 211 19.3 24.1 0.00 0.00 0.00 81 872.7
20260507155543 6 205 17.7 24.1 0.00 0.00 0.00 81 872.8
20260507155343 6 208 12.9 17.7 0.00 0.00 0.00 81 872.8
20260507155143 6 210 14.5 20.9 0.00 0.00 0.00 81 872.8
20260507154943 6 205 12.9 20.9 0.00 0.00 0.00 81 872.8
20260507154743 6 206 16.1 20.9 0.00 0.00 0.00 81 872.8
20260507154543 6 215 17.7 22.5 0.00 0.00 0.00 81 872.8
20260507154343 7 211 19.3 24.1 0.00 0.00 0.00 80 872.8
20260507154141 7 217 17.7 29.0 0.00 0.00 0.00 80 872.8
20260507153941 7 219 14.5 24.1 0.00 0.00 0.00 80 872.7
20260507153741 7 226 12.9 19.3 0.00 0.00 0.00 80 872.7
20260507153541 7 229 8.0 11.3 0.00 0.00 0.00 80 872.7
20260507153341 7 232 8.0 11.3 0.00 0.00 0.00 80 872.7
20260507153132 7 242 6.4 8.0 0.00 0.00 0.00 80 872.6
20260507152932 7 247 6.4 8.0 0.00 0.00 0.00 80 872.7
20260507152732 7 239 8.0 9.7 0.00 0.00 0.00 80 872.7
20260507152532 7 238 6.4 9.7 0.00 0.00 0.00 80 872.7
20260507152332 7 239 8.0 9.7 0.00 0.00 0.00 80 872.6
20260507152130 7 240 8.0 9.7 0.00 0.00 0.00 80 872.6
20260507151930 7 244 6.4 9.7 0.00 0.00 0.00 80 872.6
20260507151730 7 243 8.0 9.7 0.00 0.00 0.00 81 872.6
20260507151530 7 245 8.0 9.7 0.00 0.00 0.00 81 872.7
20260507151351 7 257 8.0 9.7 0.00 0.00 0.00 80 872.6
20260507151330 7 252 8.0 9.7 0.00 0.00 0.00 80 872.6
20260507151129 7 252 8.0 9.7 0.00 0.00 0.00 81 872.6
20260507150929 7 257 8.0 9.7 0.00 0.00 0.00 80 872.6
20260507150729 7 265 9.7 11.3 0.00 0.00 0.00 80 872.6
20260507150529 7 268 9.7 11.3 0.00 0.00 0.00 81 872.6
20260507150327 7 258 11.3 12.9 0.00 0.00 0.00 81 872.6
20260507150125 7 251 12.9 19.3 0.00 0.00 0.00 81 872.7
20260507145925 7 239 16.1 22.5 0.00 0.00 0.00 80 872.7
20260507145725 8 240 14.5 17.7 0.00 0.00 0.00 80 872.7
20260507145525 8 259 9.7 16.1 0.00 0.00 0.00 80 872.7
20260507145429 8 267 4.8 6.4 0.00 0.00 0.00 80 872.6
20260507145325 8 267 4.8 6.4 0.00 0.00 0.00 80 872.6
20260507145125 8 297 3.2 8.0 0.00 0.00 0.00 80 872.6
20260507144925 8 280 1.6 8.0 0.00 0.00 0.00 80 872.6
20260507144725 8 262 3.2 4.8 0.00 0.00 0.00 79 872.5
20260507144526 8 239 3.2 6.4 0.00 0.00 0.00 79 872.5
20260507144325 8 223 4.8 8.0 0.00 0.00 0.00 79 872.5
20260507144123 8 220 4.8 8.0 0.00 0.00 0.00 79 872.5
20260507143923 8 218 4.8 8.0 0.00 0.00 0.00 79 872.5
20260507143723 8 199 6.4 8.0 0.00 0.00 0.00 79 872.5
20260507143523 8 186 8.0 11.3 0.00 0.00 0.00 79 872.6
20260507143323 8 183 8.0 11.3 0.00 0.00 0.00 79 872.5
20260507143311 8 188 9.7 14.5 0.00 0.00 0.00 79 872.5
20260507143121 8 186 8.0 11.3 0.00 0.00 0.00 79 872.5
20260507142921 8 188 9.7 14.5 0.00 0.00 0.00 79 872.5
20260507142721 8 191 9.7 14.5 0.00 0.00 0.00 79 872.5
20260507142522 8 193 11.3 14.5 0.00 0.00 0.00 79 872.5
20260507142321 8 194 11.3 14.5 0.00 0.00 0.00 79 872.5
20260507142119 8 188 9.7 12.9 0.00 0.00 0.00 79 872.5
20260507141919 8 193 8.0 11.3 0.00 0.00 0.00 79 872.5
20260507141720 8 188 9.7 12.9 0.00 0.00 0.00 79 872.5
20260507141519 8 183 9.7 12.9 0.00 0.00 0.00 79 872.5
20260507141319 8 185 8.0 12.9 0.00 0.00 0.00 79 872.5
20260507141119 8 189 8.0 11.3 0.00 0.00 0.00 78 872.5
20260507140919 8 183 8.0 9.7 0.00 0.00 0.00 78 872.6
20260507140719 9 178 8.0 9.7 0.00 0.00 0.00 78 872.6
20260507140519 9 183 6.4 8.0 0.00 0.00 0.00 78 872.6
20260507140319 9 186 6.4 9.7 0.00 0.00 0.00 78 872.7
20260507140117 9 204 4.8 9.7 0.00 0.00 0.00 78 872.7
20260507135917 9 215 3.2 6.4 0.00 0.00 0.00 78 872.7
20260507135718 9 216 3.2 6.4 0.00 0.00 0.00 78 872.7
20260507135515 9 211 3.2 6.4 0.00 0.00 0.00 78 872.8
20260507135315 9 211 4.8 6.4 0.00 0.00 0.00 78 872.8
20260507135115 9 203 3.2 4.8 0.00 0.00 0.00 78 872.8
20260507134915 9 196 3.2 3.2 0.00 0.00 0.00 78 872.8
20260507134715 9 202 3.2 6.4 0.00 0.00 0.00 78 872.8
20260507134515 9 215 3.2 6.4 0.00 0.00 0.00 78 872.8
20260507134315 9 215 4.8 8.0 0.00 0.00 0.00 78 872.8
20260507134113 9 208 4.8 8.0 0.00 0.00 0.00 78 872.8
20260507133913 9 208 4.8 8.0 0.00 0.00 0.00 78 872.8
20260507133713 9 202 3.2 8.0 0.00 0.00 0.00 78 872.8
20260507133513 9 196 6.4 9.7 0.00 0.00 0.00 78 872.8
20260507133313 9 196 6.4 9.7 0.00 0.00 0.00 78 872.8
20260507133113 9 212 3.2 8.0 0.00 0.00 0.00 78 872.8
20260507132913 9 204 6.4 11.3 0.00 0.00 0.00 78 872.8
20260507132713 9 185 8.0 12.9 0.00 0.00 0.00 78 872.8
20260507132513 9 180 11.3 12.9 0.00 0.00 0.00 78 872.8
20260507132313 9 179 11.3 12.9 0.00 0.00 0.00 79 872.8
20260507132111 9 185 8.0 12.9 0.00 0.00 0.00 79 872.8
20260507131911 9 192 6.4 14.5 0.00 0.00 0.00 78 872.8
20260507131711 9 203 6.4 11.3 0.00 0.00 0.00 78 872.8
20260507131511 9 217 6.4 11.3 0.00 0.00 0.00 78 872.8
20260507131311 9 220 8.0 12.9 0.00 0.00 0.00 78 872.8
20260507131111 9 214 6.4 9.7 0.00 0.00 0.00 78 872.7
20260507130911 9 216 6.4 9.7 0.00 0.00 0.00 78 872.7
20260507130711 9 211 6.4 9.7 0.00 0.00 0.00 78 872.7
20260507130512 9 219 6.4 11.3 0.00 0.00 0.00 78 872.7
20260507130312 9 230 6.4 11.3 0.00 0.00 0.00 79 872.7
20260507130100 8 221 6.4 9.7 0.00 0.00 0.00 79 872.7
20260507125900 8 209 9.7 16.1 0.00 0.00 0.00 79 872.7
20260507125700 8 217 9.7 16.1 0.00 0.00 0.00 79 872.7
20260507125500 8 224 8.0 12.9 0.00 0.00 0.00 79 872.7
20260507125300 8 224 6.4 11.3 0.00 0.00 0.00 79 872.7
20260507125100 8 222 6.4 11.3 0.00 0.00 0.00 79 872.7
20260507124900 8 219 6.4 11.3 0.00 0.00 0.00 79 872.7
20260507124658 8 223 6.4 11.3 0.00 0.00 0.00 79 872.7
20260507124458 8 236 6.4 9.7 0.00 0.00 0.00 79 872.7
20260507124258 8 228 4.8 8.0 0.00 0.00 0.00 79 872.7
20260507124057 8 238 4.8 6.4 0.00 0.00 0.00 79 872.8
20260507123857 9 239 6.4 8.0 0.00 0.00 0.00 79 872.8
20260507123657 9 220 4.8 6.4 0.00 0.00 0.00 79 872.8
20260507123457 9 205 4.8 9.7 0.00 0.00 0.00 79 872.8
20260507123257 9 185 6.4 9.7 0.00 0.00 0.00 79 872.7
20260507123056 9 200 8.0 16.1 0.00 0.00 0.00 79 872.7
20260507122856 9 212 8.0 16.1 0.00 0.00 0.00 79 872.7
20260507122656 9 212 9.7 14.5 0.00 0.00 0.00 79 872.7
20260507122456 9 202 9.7 14.5 0.00 0.00 0.00 79 872.7
20260507122256 8 200 6.4 11.3 0.00 0.00 0.00 79 872.6
20260507122054 8 208 8.0 12.9 0.00 0.00 0.00 79 872.6
20260507121854 8 204 8.0 12.9 0.00 0.00 0.00 79 872.6
20260507121654 8 204 9.7 12.9 0.00 0.00 0.00 79 872.6
20260507121454 8 210 9.7 16.1 0.00 0.00 0.00 79 872.6
20260507121254 8 213 9.7 14.5 0.00 0.00 0.00 79 872.6
20260507121054 8 205 11.3 16.1 0.00 0.00 0.00 79 872.6
20260507120854 8 205 11.3 16.1 0.00 0.00 0.00 79 872.6
20260507120654 8 211 9.7 12.9 0.00 0.00 0.00 79 872.6
20260507120454 8 210 8.0 11.3 0.00 0.00 0.00 79 872.7
20260507120254 8 212 9.7 12.9 0.00 0.00 0.00 79 872.7
20260507120052 8 216 8.0 11.3 0.00 0.00 0.00 79 872.7
20260507115852 8 216 8.0 11.3 0.00 0.00 0.00 79 872.7
20260507115652 8 215 9.7 12.9 0.00 0.00 0.00 79 872.7
20260507115453 8 222 11.3 12.9 0.00 0.00 0.00 79 872.7
20260507115253 8 223 12.9 14.5 0.00 0.00 0.00 79 872.7
20260507115053 8 222 12.9 14.5 0.00 0.00 0.00 79 872.7
20260507114853 8 220 11.3 14.5 0.00 0.00 0.00 79 872.7
20260507114653 8 215 9.7 12.9 0.00 0.00 0.00 79 872.7
20260507114453 8 211 11.3 16.1 0.00 0.00 0.00 79 872.7
20260507114253 8 216 11.3 12.9 0.00 0.00 0.00 79 872.7
20260507114051 8 215 9.7 11.3 0.00 0.00 0.00 78 872.7
20260507113849 8 216 8.0 9.7 0.00 0.00 0.00 78 872.7
20260507113649 8 220 8.0 11.3 0.00 0.00 0.00 78 872.6
20260507113449 8 224 9.7 14.5 0.00 0.00 0.00 78 872.7
20260507113249 8 221 9.7 12.9 0.00 0.00 0.00 78 872.7
20260507113049 8 219 9.7 12.9 0.00 0.00 0.00 78 872.7
20260507112849 8 215 9.7 12.9 0.00 0.00 0.00 78 872.7
20260507112649 8 209 8.0 9.7 0.00 0.00 0.00 78 872.7
20260507112449 8 199 6.4 9.7 0.00 0.00 0.00 78 872.6
20260507112249 8 207 8.0 11.3 0.00 0.00 0.00 78 872.6
20260507112047 8 216 6.4 8.0 0.00 0.00 0.00 78 872.6
20260507111847 8 224 6.4 6.4 0.00 0.00 0.00 78 872.6
20260507111647 8 232 6.4 6.4 0.00 0.00 0.00 78 872.6
20260507111447 8 233 6.4 8.0 0.00 0.00 0.00 78 872.6
20260507111247 8 233 4.8 6.4 0.00 0.00 0.00 78 872.6
20260507111047 8 227 6.4 8.0 0.00 0.00 0.00 78 872.6
20260507110847 8 230 6.4 8.0 0.00 0.00 0.00 78 872.6
20260507110647 8 243 6.4 9.7 0.00 0.00 0.00 78 872.6
20260507110447 8 253 6.4 9.7 0.00 0.00 0.00 77 872.6
20260507110247 9 258 8.0 11.3 0.00 0.00 0.00 77 872.5
20260507110045 9 254 9.7 11.3 0.00 0.00 0.00 77 872.5
20260507105845 9 249 8.0 11.3 0.00 0.00 0.00 77 872.5
20260507105645 9 256 8.0 11.3 0.00 0.00 0.00 77 872.5
20260507105445 9 255 6.4 9.7 0.00 0.00 0.00 77 872.5
20260507105245 9 260 6.4 9.7 0.00 0.00 0.00 77 872.5
20260507105045 9 249 8.0 12.9 0.00 0.00 0.00 77 872.4
20260507104845 9 231 8.0 12.9 0.00 0.00 0.00 77 872.4
20260507104645 8 223 6.4 11.3 0.00 0.00 0.00 77 872.4
20260507104445 8 234 6.4 8.0 0.00 0.00 0.00 77 872.5
20260507104245 8 257 6.4 9.7 0.00 0.00 0.00 77 872.5
20260507104044 8 255 6.4 9.7 0.00 0.00 0.00 77 872.5
20260507103843 9 252 6.4 9.7 0.00 0.00 0.00 77 872.5
20260507103643 9 248 8.0 11.3 0.00 0.00 0.00 77 872.4
20260507103443 9 246 8.0 11.3 0.00 0.00 0.00 77 872.4
20260507103244 9 240 8.0 11.3 0.00 0.00 0.00 77 872.4
20260507103032 9 234 4.8 9.7 0.00 0.00 0.00 77 872.4
20260507102832 9 229 6.4 9.7 0.00 0.00 0.00 77 872.4
20260507102632 9 230 6.4 9.7 0.00 0.00 0.00 77 872.4
20260507102432 9 244 6.4 8.0 0.00 0.00 0.00 77 872.4
20260507102232 9 256 4.8 8.0 0.00 0.00 0.00 77 872.4
20260507102031 9 249 3.2 4.8 0.00 0.00 0.00 77 872.3
20260507101830 9 255 4.8 9.7 0.00 0.00 0.00 77 872.3
20260507101630 9 249 6.4 11.3 0.00 0.00 0.00 77 872.3
20260507101430 9 247 6.4 11.3 0.00 0.00 0.00 77 872.3
20260507101229 9 268 8.0 11.3 0.00 0.00 0.00 77 872.2
20260507101029 9 263 8.0 12.9 0.00 0.00 0.00 77 872.2
20260507100829 9 255 11.3 16.1 0.00 0.00 0.00 77 872.3
20260507100629 9 247 9.7 12.9 0.00 0.00 0.00 77 872.3
20260507100429 9 242 9.7 14.5 0.00 0.00 0.00 76 872.3
20260507100229 9 225 6.4 11.3 0.00 0.00 0.00 76 872.3
20260507100027 9 219 6.4 8.0 0.00 0.00 0.00 76 872.3
20260507095827 9 229 6.4 9.7 0.00 0.00 0.00 76 872.2
20260507095627 9 221 4.8 8.0 0.00 0.00 0.00 76 872.2
20260507095427 10 213 8.0 14.5 0.00 0.00 0.00 76 872.2
20260507095227 10 218 6.4 14.5 0.00 0.00 0.00 76 872.2
20260507095027 10 225 8.0 14.5 0.00 0.00 0.00 76 872.2
20260507094827 10 201 9.7 16.1 0.00 0.00 0.00 76 872.2
20260507094627 10 188 11.3 16.1 0.00 0.00 0.00 76 872.2
20260507094427 10 206 6.4 11.3 0.00 0.00 0.00 76 872.2
20260507094227 10 204 3.2 6.4 0.00 0.00 0.00 76 872.1
20260507094025 10 202 3.2 6.4 0.00 0.00 0.00 76 872.1
20260507093825 10 230 9.7 16.1 0.00 0.00 0.00 76 872.1
20260507093626 10 219 9.7 16.1 0.00 0.00 0.00 76 872.1
20260507093425 10 218 9.7 12.9 0.00 0.00 0.00 76 872.1
20260507093225 10 224 11.3 19.3 0.00 0.00 0.00 76 872.0
20260507093025 10 221 9.7 14.5 0.00 0.00 0.00 76 872.0
20260507092825 10 206 8.0 19.3 0.00 0.00 0.00 76 872.0
20260507092625 10 200 6.4 19.3 0.00 0.00 0.00 76 872.0
20260507092425 10 210 8.0 14.5 0.00 0.00 0.00 76 871.9
20260507092223 10 205 8.0 12.9 0.00 0.00 0.00 76 871.9
20260507092021 10 205 8.0 14.5 0.00 0.00 0.00 76 871.9
20260507091821 10 201 9.7 16.1 0.00 0.00 0.00 77 871.9
20260507091622 9 197 9.7 16.1 0.00 0.00 0.00 77 871.9
20260507091421 9 204 11.3 17.7 0.00 0.00 0.00 77 871.9
20260507091221 9 193 12.9 17.7 0.00 0.00 0.00 77 871.8
20260507091021 9 186 11.3 16.1 0.00 0.00 0.00 77 871.8
20260507090821 9 204 11.3 22.5 0.00 0.00 0.00 77 871.8
20260507090621 9 230 8.0 11.3 0.00 0.00 0.00 77 871.8
20260507090421 9 230 6.4 9.7 0.00 0.00 0.00 77 871.8
20260507090221 9 216 6.4 12.9 0.00 0.00 0.00 77 871.8
20260507090019 9 203 9.7 16.1 0.00 0.00 0.00 77 871.8
20260507085819 9 213 8.0 12.9 0.00 0.00 0.00 77 871.8
20260507085619 9 220 8.0 16.1 0.00 0.00 0.00 77 871.7
20260507085419 9 216 8.0 11.3 0.00 0.00 0.00 77 871.7
20260507085219 9 216 8.0 11.3 0.00 0.00 0.00 77 871.7
20260507085017 9 209 9.7 12.9 0.00 0.00 0.00 77 871.7
20260507084817 9 210 8.0 17.7 0.00 0.00 0.00 77 871.7
20260507084617 9 223 8.0 17.7 0.00 0.00 0.00 77 871.7
20260507084417 9 212 6.4 9.7 0.00 0.00 0.00 77 871.7
20260507084217 9 206 8.0 12.9 0.00 0.00 0.00 77 871.6
20260507084015 9 218 8.0 12.9 0.00 0.00 0.00 77 871.6
20260507083815 9 235 8.0 11.3 0.00 0.00 0.00 77 871.6
20260507083615 9 230 11.3 20.9 0.00 0.00 0.00 76 871.5
20260507083414 9 231 12.9 20.9 0.00 0.00 0.00 76 871.5
20260507083214 9 228 9.7 19.3 0.00 0.00 0.00 76 871.5
20260507083014 9 243 11.3 19.3 0.00 0.00 0.00 77 871.4
20260507082815 9 242 11.3 19.3 0.00 0.00 0.00 77 871.4
20260507082614 9 238 8.0 17.7 0.00 0.00 0.00 77 871.4
20260507082414 9 232 11.3 20.9 0.00 0.00 0.00 76 871.4
20260507082214 9 226 17.7 22.5 0.00 0.00 0.00 76 871.3
20260507082013 9 238 16.1 22.5 0.00 0.00 0.00 76 871.3
20260507081813 9 233 14.5 25.7 0.00 0.00 0.00 76 871.3
20260507081612 9 225 12.9 24.1 0.00 0.00 0.00 76 871.2
20260507081410 9 228 12.9 24.1 0.00 0.00 0.00 76 871.2
20260507081210 9 235 12.9 24.1 0.00 0.00 0.00 76 871.2
20260507081010 9 232 11.3 24.1 0.00 0.00 0.00 77 871.2
20260507080810 9 233 9.7 19.3 0.00 0.00 0.00 76 871.1
20260507080610 9 231 14.5 25.7 0.00 0.00 0.00 76 871.1
20260507080410 9 225 12.9 17.7 0.00 0.00 0.00 76 871.0
20260507080210 9 239 16.1 25.7 0.00 0.00 0.00 77 871.0
20260507080031 9 237 16.1 25.7 0.00 0.00 0.00 76 871.0
20260507075959 9 237 16.1 25.7 0.00 0.00 0.00 76 871.0
20260507075759 9 248 14.5 22.5 0.00 0.00 0.00 77 871.0
20260507075559 9 230 14.5 24.1 0.00 0.00 0.00 77 871.0
20260507075359 9 228 14.5 22.5 0.00 0.00 0.00 77 871.0
20260507075159 9 236 11.3 22.5 0.00 0.00 0.00 77 871.0
20260507074959 9 221 11.3 17.7 0.00 0.00 0.00 77 871.0
20260507074759 8 218 9.7 19.3 0.00 0.00 0.00 77 870.9
20260507074559 8 226 12.9 20.9 0.00 0.00 0.00 77 870.8
20260507074358 8 222 12.9 20.9 0.00 0.00 0.00 77 870.8
20260507073956 8 218 14.5 22.5 0.00 0.00 0.00 77 870.7
20260507073756 8 227 19.3 35.4 0.00 0.00 0.00 77 870.7
20260507073556 8 212 17.7 25.7 0.00 0.00 0.00 77 870.7
20260507073357 8 215 16.1 22.5 0.00 0.00 0.00 77 870.7
20260507073229 8 214 16.1 24.1 0.00 0.00 0.00 77 870.7
20260507073157 8 214 16.1 24.1 0.00 0.00 0.00 77 870.7
20260507072957 8 217 17.7 27.4 0.00 0.00 0.00 77 870.6
20260507072757 8 219 16.1 27.4 0.00 0.00 0.00 77 870.6
20260507072557 8 213 16.1 30.6 0.00 0.00 0.00 77 870.5
20260507072357 8 215 16.1 30.6 0.00 0.00 0.00 77 870.5
20260507072156 8 221 16.1 25.7 0.00 0.00 0.00 77 870.5
20260507071954 8 211 20.9 27.4 0.00 0.00 0.00 77 870.4
20260507071754 8 212 22.5 32.2 0.00 0.00 0.00 77 870.4
20260507071554 8 216 20.9 32.2 0.00 0.00 0.00 77 870.4
20260507071354 8 219 19.3 24.1 0.00 0.00 0.00 78 870.4
20260507071154 8 219 19.3 32.2 0.00 0.00 0.00 77 870.3
20260507070954 8 217 20.9 32.2 0.00 0.00 0.00 78 870.3
20260507070754 8 215 24.1 38.6 0.00 0.00 0.00 78 870.2
20260507070552 8 220 27.4 38.6 0.00 0.00 0.00 77 870.1
20260507070352 8 220 25.7 35.4 0.00 0.00 0.00 77 870.1
20260507070152 8 226 22.5 33.8 0.00 0.00 0.00 77 870.1
20260507065950 8 226 19.3 27.4 0.00 0.00 0.00 77 870.2
20260507065750 8 221 19.3 25.7 0.00 0.00 0.00 77 870.2
20260507065550 8 220 17.7 29.0 0.00 0.00 0.00 77 870.2
20260507065350 8 221 19.3 29.0 0.00 0.00 0.00 77 870.1
20260507065150 8 218 22.5 29.0 0.00 0.00 0.00 77 870.1
20260507064949 8 217 19.3 30.6 0.00 0.00 0.00 77 870.1
20260507064749 8 212 19.3 30.6 0.00 0.00 0.00 77 870.1
20260507064549 8 215 20.9 33.8 0.00 0.00 0.00 77 870.1
20260507064349 8 218 20.9 35.4 0.00 0.00 0.00 77 870.1
20260507064149 8 220 19.3 35.4 0.00 0.00 0.00 77 870.1
20260507063947 8 214 22.5 35.4 0.00 0.00 0.00 77 870.0
20260507063747 8 215 22.5 41.8 0.00 0.00 0.00 78 870.0
20260507063547 8 207 19.3 27.4 0.00 0.00 0.00 78 870.0
20260507063347 8 210 19.3 33.8 0.00 0.00 0.00 78 870.0
20260507063147 8 213 20.9 37.0 0.00 0.00 0.00 78 870.0
20260507062947 8 209 22.5 37.0 0.00 0.00 0.00 78 869.9
20260507062747 8 213 22.5 37.0 0.00 0.00 0.00 77 869.9
20260507062547 8 204 19.3 30.6 0.00 0.00 0.00 78 869.9
20260507062347 8 201 22.5 37.0 0.00 0.00 0.00 77 869.9
20260507062147 8 196 22.5 37.0 0.00 0.00 0.00 77 869.8
20260507061945 8 201 20.9 33.8 0.00 0.00 0.00 78 869.8
20260507061745 8 194 20.9 40.2 0.00 0.00 0.00 78 869.7
20260507061546 8 205 22.5 40.2 0.00 0.00 0.00 78 869.7
20260507061346 8 203 20.9 35.4 0.00 0.00 0.00 78 869.6
20260507061146 7 207 22.5 40.2 0.00 0.00 0.00 78 869.6
20260507060946 7 209 25.7 37.0 0.00 0.00 0.00 78 869.5
20260507060746 7 202 22.5 35.4 0.00 0.00 0.00 78 869.4
20260507060546 7 198 29.0 48.3 0.00 0.00 0.00 78 869.4
20260507060346 7 194 25.7 48.3 0.00 0.00 0.00 78 869.3
20260507060146 7 198 27.4 40.2 0.00 0.00 0.00 78 869.3
20260507055944 7 191 32.2 48.3 0.00 0.00 0.00 78 869.3
20260507055742 7 193 32.2 48.3 0.00 0.00 0.00 78 869.2
20260507055542 7 193 30.6 43.5 0.00 0.00 0.00 78 869.2
20260507055342 7 191 35.4 57.9 0.00 0.00 0.00 78 869.1
20260507055142 7 187 35.4 46.7 0.00 0.00 0.00 78 869.1
20260507054942 7 189 35.4 51.5 0.00 0.00 0.00 78 869.0
20260507054820 7 185 41.8 51.5 0.00 0.00 0.00 78 869.0
20260507054742 7 185 41.8 51.5 0.00 0.00 0.00 78 869.0
20260507054542 7 193 37.0 51.5 0.00 0.00 0.00 78 869.0
20260507054342 7 196 32.2 49.9 0.00 0.00 0.00 78 869.0
20260507054142 7 192 32.2 49.9 0.00 0.00 0.00 78 868.9
20260507053940 7 189 37.0 51.5 0.00 0.00 0.00 78 868.8
20260507053740 7 186 41.8 53.1 0.00 0.00 0.00 78 868.8
20260507053540 7 189 38.6 53.1 0.00 0.00 0.00 78 868.8
20260507053340 7 193 37.0 49.9 0.00 0.00 0.00 78 868.9
20260507053140 7 190 33.8 51.5 0.00 0.00 0.00 78 868.8
20260507052931 7 188 35.4 54.7 0.00 0.00 0.00 78 868.8
20260507052731 7 191 35.4 51.5 0.00 0.00 0.00 78 868.8
20260507052531 7 187 37.0 48.3 0.00 0.00 0.00 78 868.8
20260507052331 7 188 38.6 51.5 0.00 0.00 0.00 78 868.8
20260507052131 7 192 38.6 51.5 0.00 0.00 0.00 78 868.9
20260507051929 7 194 35.4 48.3 0.00 0.00 0.00 78 868.9
20260507051729 7 190 38.6 57.9 0.00 0.00 0.00 78 868.9
20260507051530 7 188 41.8 57.9 0.00 0.00 0.00 78 868.8
20260507051329 7 186 40.2 56.3 0.00 0.00 0.00 78 868.8
20260507051129 7 186 37.0 54.7 0.00 0.00 0.00 78 868.8
20260507050929 7 186 37.0 48.3 0.00 0.00 0.00 78 868.8
20260507050729 7 191 32.2 48.3 0.00 0.00 0.00 78 868.8
20260507050529 7 193 30.6 53.1 0.00 0.00 0.00 78 868.8
20260507050329 7 187 38.6 53.1 0.00 0.00 0.00 78 868.7
20260507050129 7 192 38.6 53.1 0.00 0.00 0.00 78 868.7
20260507045926 7 193 32.2 48.3 0.00 0.00 0.00 78 868.7
20260507045726 7 191 30.6 45.1 0.00 0.00 0.00 78 868.7
20260507045526 7 200 30.6 40.2 0.00 0.00 0.00 78 868.7
20260507045326 7 209 29.0 40.2 0.00 0.00 0.00 78 868.7
20260507045127 7 207 27.4 37.0 0.00 0.00 0.00 78 868.6
20260507044925 7 197 33.8 46.7 0.00 0.00 0.00 78 868.6
20260507044725 7 194 33.8 46.7 0.00 0.00 0.00 78 868.5
20260507044525 7 196 32.2 46.7 0.00 0.00 0.00 78 868.6
20260507044325 7 197 29.0 41.8 0.00 0.00 0.00 78 868.6
20260507044125 7 194 32.2 49.9 0.00 0.00 0.00 78 868.6
20260507043923 7 194 30.6 49.9 0.00 0.00 0.00 78 868.6
20260507043723 7 197 30.6 40.2 0.00 0.00 0.00 78 868.6
20260507043523 7 191 32.2 45.1 0.00 0.00 0.00 78 868.7
20260507043323 7 193 32.2 48.3 0.00 0.00 0.00 78 868.7
20260507043123 7 199 32.2 48.3 0.00 0.00 0.00 78 868.7
20260507042923 7 203 27.4 43.5 0.00 0.00 0.00 78 868.7
20260507042723 7 197 29.0 41.8 0.00 0.00 0.00 78 868.7
20260507042523 7 198 30.6 46.7 0.00 0.00 0.00 78 868.8
20260507042323 7 197 30.6 46.7 0.00 0.00 0.00 78 868.8
20260507042123 7 197 29.0 46.7 0.00 0.00 0.00 78 868.7
20260507041921 7 194 25.7 41.8 0.00 0.00 0.00 78 868.7
20260507041721 7 200 27.4 41.8 0.00 0.00 0.00 77 868.7
20260507041521 7 199 32.2 48.3 0.00 0.00 0.00 77 868.7
20260507041321 7 203 30.6 53.1 0.00 0.00 0.00 77 868.7
20260507041122 7 201 30.6 53.1 0.00 0.00 0.00 77 868.7
20260507040921 7 199 25.7 33.8 0.00 0.00 0.00 77 868.6
20260507040721 7 196 30.6 51.5 0.00 0.00 0.00 77 868.6
20260507040521 7 198 29.0 51.5 0.00 0.00 0.00 77 868.6
20260507040321 7 192 27.4 46.7 0.00 0.00 0.00 77 868.5
20260507040121 7 193 33.8 46.7 0.00 0.00 0.00 77 868.5
20260507035919 7 189 37.0 46.7 0.00 0.00 0.00 77 868.5
20260507035719 7 190 37.0 48.3 0.00 0.00 0.00 77 868.5
20260507035519 7 189 37.0 48.3 0.00 0.00 0.00 77 868.4
20260507035319 7 189 35.4 49.9 0.00 0.00 0.00 77 868.4
20260507035119 7 188 33.8 43.5 0.00 0.00 0.00 77 868.3
20260507034919 7 188 37.0 51.5 0.00 0.00 0.00 77 868.3
20260507034719 7 189 38.6 51.5 0.00 0.00 0.00 77 868.3
20260507034519 7 192 37.0 54.7 0.00 0.00 0.00 77 868.3
20260507034319 7 188 41.8 54.7 0.00 0.00 0.00 77 868.3
20260507034117 7 190 41.8 64.4 0.00 0.00 0.00 77 868.2
20260507033915 7 184 37.0 64.4 0.00 0.00 0.00 77 868.2
20260507033715 7 186 40.2 62.8 0.00 0.00 0.00 77 868.1
20260507033515 7 183 40.2 62.8 0.00 0.00 0.00 77 868.0
20260507033315 7 184 38.6 56.3 0.00 0.00 0.00 77 868.0
20260507033115 7 183 43.5 56.3 0.00 0.00 0.00 76 867.9
20260507032914 7 182 41.8 57.9 0.00 0.00 0.00 76 867.9
20260507032715 7 181 37.0 49.9 0.00 0.00 0.00 76 868.0
20260507032515 7 183 37.0 54.7 0.00 0.00 0.00 76 868.0
20260507032315 7 183 40.2 54.7 0.00 0.00 0.00 76 868.0
20260507032115 7 185 38.6 53.1 0.00 0.00 0.00 76 868.0
20260507031913 7 188 40.2 57.9 0.00 0.00 0.00 76 868.0
20260507031713 7 186 40.2 56.3 0.00 0.00 0.00 76 868.0
20260507031513 7 186 38.6 56.3 0.00 0.00 0.00 76 868.0
20260507031313 7 186 43.5 54.7 0.00 0.00 0.00 76 812.1
20260507031113 7 190 41.8 49.9 0.00 0.00 0.00 76 756.4
20260507030902 7 183 40.2 51.5 0.00 0.00 0.00 76 868.1
20260507030700 7 183 38.6 51.5 0.00 0.00 0.00 76 868.2
20260507030500 7 189 35.4 48.3 0.00 0.00 0.00 76 868.2
20260507030300 7 186 40.2 56.3 0.00 0.00 0.00 76 868.1
20260507030100 7 185 41.8 61.2 0.00 0.00 0.00 76 868.1
20260507025900 7 183 38.6 56.3 0.00 0.00 0.00 76 868.2
20260507025700 7 183 41.8 61.2 0.00 0.00 0.00 75 868.1
20260507025500 7 184 37.0 45.1 0.00 0.00 0.00 75 868.2
20260507025300 7 182 40.2 61.2 0.00 0.00 0.00 75 868.1
20260507025100 7 182 41.8 61.2 0.00 0.00 0.00 75 868.2
20260507024859 7 183 43.5 59.5 0.00 0.00 0.00 75 868.2
20260507024659 7 182 40.2 59.5 0.00 0.00 0.00 75 868.1
20260507024459 7 182 37.0 53.1 0.00 0.00 0.00 75 868.2
20260507024259 7 177 37.0 53.1 0.00 0.00 0.00 75 868.2
20260507024059 7 172 40.2 54.7 0.00 0.00 0.00 75 868.3